timestamp,wind_dir_avg,wind_spd_avg,wind_spd_max_dir,wind_spd_gust,battery_voltage,lat,long
2022-09-19 00:04:00+00:00,281.0,9.11,286.0,10.68,12.57,47.59359,-54.27349
2022-09-19 00:14:01+00:00,278.0,9.16,278.0,11.28,12.57,47.59359,-54.27349
2022-09-19 00:24:01+00:00,277.0,9.34,277.0,10.48,12.57,47.59359,-54.27349
2022-09-19 00:34:01+00:00,280.0,8.66,277.0,10.49,12.57,47.59359,-54.27349
2022-09-19 00:44:01+00:00,275.0,8.15,280.0,8.82,12.57,47.59359,-54.27349
2022-09-19 00:54:01+00:00,271.0,9.33,273.0,11.11,12.57,47.59359,-54.27349
2022-09-19 01:04:01+00:00,268.0,8.54,263.0,10.53,12.57,47.59359,-54.27349
2022-09-19 01:14:01+00:00,264.0,9.26,263.0,10.63,12.57,47.59359,-54.27349
2022-09-19 01:24:01+00:00,265.0,9.9,262.0,11.33,12.57,47.59359,-54.27349
2022-09-19 01:34:01+00:00,269.0,8.55,267.0,9.76,12.57,47.59359,-54.27349
2022-09-19 01:44:01+00:00,271.0,9.3,268.0,10.63,12.57,47.59359,-54.27349
2022-09-19 01:54:01+00:00,271.0,8.39,274.0,10.2,12.57,47.59359,-54.27349
2022-09-19 02:04:01+00:00,271.0,9.26,278.0,10.64,12.57,47.59359,-54.27349
2022-09-19 02:14:00+00:00,268.0,9.93,267.0,11.18,12.49,47.59359,-54.27349
2022-09-19 02:24:00+00:00,274.0,9.01,273.0,11.41,12.49,47.59359,-54.27349
2022-09-19 02:34:00+00:00,269.0,9.32,271.0,10.67,12.49,47.59359,-54.27349
2022-09-19 02:44:00+00:00,274.0,9.27,274.0,10.96,12.49,47.59359,-54.27349
2022-09-19 02:54:00+00:00,267.0,8.75,265.0,10.01,12.49,47.59359,-54.27349
2022-09-19 03:04:00+00:00,254.0,9.09,251.0,10.72,12.49,47.59359,-54.27349
2022-09-19 03:14:00+00:00,245.0,8.64,245.0,10.65,12.49,47.59359,-54.27349
2022-09-19 03:24:00+00:00,248.0,9.12,248.0,10.55,12.49,47.59359,-54.27349
2022-09-19 03:34:00+00:00,247.0,9.93,250.0,11.18,12.49,47.59359,-54.27349
2022-09-19 03:44:00+00:00,246.0,9.22,247.0,10.68,12.49,47.59359,-54.27349
2022-09-19 03:54:00+00:00,246.0,8.94,250.0,10.96,12.49,47.59359,-54.27349
2022-09-19 04:04:00+00:00,258.0,8.2,252.0,10.44,12.49,47.59359,-54.27349
2022-09-19 04:14:01+00:00,269.0,8.47,266.0,10.16,12.41,47.59359,-54.27349
2022-09-19 04:24:01+00:00,271.0,8.34,268.0,10.24,12.41,47.59359,-54.27349
2022-09-19 04:34:01+00:00,263.0,8.81,260.0,10.41,12.41,47.59359,-54.27349
2022-09-19 04:44:01+00:00,269.0,8.53,275.0,10.22,12.41,47.59359,-54.27349
2022-09-19 04:54:01+00:00,269.0,9.13,266.0,10.54,12.41,47.59359,-54.27349
2022-09-19 05:04:01+00:00,275.0,10.14,279.0,11.46,12.41,47.59359,-54.27349
2022-09-19 05:14:00+00:00,266.0,8.49,264.0,10.47,12.41,47.59359,-54.27349
2022-09-19 05:24:00+00:00,265.0,8.4,262.0,10.63,12.41,47.59359,-54.27349
2022-09-19 05:34:00+00:00,254.0,9.79,256.0,10.88,12.41,47.59359,-54.27349
2022-09-19 05:44:00+00:00,280.0,9.11,282.0,10.29,12.41,47.59359,-54.27349
2022-09-19 05:54:00+00:00,277.0,10.29,281.0,11.61,12.41,47.59359,-54.27349
2022-09-19 06:04:00+00:00,277.0,10.38,281.0,11.76,12.41,47.59359,-54.27349
2022-09-19 06:14:01+00:00,279.0,10.81,281.0,11.82,12.41,47.59359,-54.27349
2022-09-19 06:24:01+00:00,276.0,9.43,281.0,10.7,12.41,47.59359,-54.27349
2022-09-19 06:34:01+00:00,279.0,8.82,273.0,9.86,12.41,47.59359,-54.27349
2022-09-19 06:44:01+00:00,281.0,10.52,280.0,11.71,12.41,47.59359,-54.27349
2022-09-19 06:54:01+00:00,273.0,9.34,272.0,10.66,12.41,47.59359,-54.27349
2022-09-19 07:04:01+00:00,270.0,9.19,270.0,10.36,12.41,47.59359,-54.27349
2022-09-19 07:14:01+00:00,263.0,8.54,263.0,9.92,12.41,47.59359,-54.27349
2022-09-19 07:24:01+00:00,262.0,8.23,261.0,8.96,12.41,47.59359,-54.27349
2022-09-19 07:34:01+00:00,266.0,8.54,265.0,9.44,12.41,47.59359,-54.27349
2022-09-19 07:44:01+00:00,263.0,9.06,256.0,11.02,12.41,47.59359,-54.27349
2022-09-19 07:54:01+00:00,277.0,8.48,280.0,10.12,12.41,47.59359,-54.27349
2022-09-19 08:04:01+00:00,272.0,8.23,274.0,10.26,12.41,47.59359,-54.27349
2022-09-19 08:14:00+00:00,272.0,9.33,271.0,10.44,12.33,47.59359,-54.27349
2022-09-19 08:24:00+00:00,268.0,8.99,265.0,10.62,12.33,47.59359,-54.27349
2022-09-19 08:34:00+00:00,269.0,8.93,274.0,10.4,12.33,47.59359,-54.27349
2022-09-19 08:44:00+00:00,265.0,8.18,265.0,10.5,12.33,47.59359,-54.27349
2022-09-19 08:54:00+00:00,271.0,8.19,271.0,10.36,12.33,47.59359,-54.27349
2022-09-19 09:04:00+00:00,269.0,8.79,269.0,10.21,12.33,47.59359,-54.27349
2022-09-19 09:14:01+00:00,272.0,9.04,272.0,10.32,12.33,47.59359,-54.27349
2022-09-19 09:24:01+00:00,274.0,8.98,274.0,10.15,12.33,47.59359,-54.27349
2022-09-19 09:34:01+00:00,268.0,9.1,270.0,10.14,12.33,47.59359,-54.27349
2022-09-19 09:44:01+00:00,262.0,8.4,264.0,10.21,12.33,47.59359,-54.27349
2022-09-19 09:54:01+00:00,256.0,8.19,264.0,9.95,12.33,47.59359,-54.27349
2022-09-19 10:04:01+00:00,261.0,7.5,263.0,9.57,12.33,47.59359,-54.27349
2022-09-19 10:14:00+00:00,261.0,6.49,263.0,7.81,13.21,47.59359,-54.27349
2022-09-19 10:24:00+00:00,267.0,6.54,264.0,7.57,13.21,47.59359,-54.27349
2022-09-19 10:34:00+00:00,276.0,5.97,274.0,7.29,13.21,47.59359,-54.27349
2022-09-19 10:44:00+00:00,269.0,5.43,270.0,6.35,13.21,47.59359,-54.27349
2022-09-19 10:54:00+00:00,267.0,5.92,263.0,6.75,13.21,47.59359,-54.27349
2022-09-19 11:04:00+00:00,267.0,5.64,272.0,6.68,13.21,47.59359,-54.27349
2022-09-19 11:14:00+00:00,269.0,5.68,275.0,6.15,13.84,47.59359,-54.27349
2022-09-19 11:24:00+00:00,283.0,7.12,285.0,8.25,13.84,47.59359,-54.27349
2022-09-19 11:34:00+00:00,287.0,5.7,277.0,6.5,13.84,47.59359,-54.27349
2022-09-19 11:44:00+00:00,299.0,5.57,302.0,6.5,13.84,47.59359,-54.27349
2022-09-19 11:54:00+00:00,299.0,4.67,309.0,5.58,13.84,47.59359,-54.27349
2022-09-19 12:04:00+00:00,289.0,5.55,292.0,6.16,13.84,47.59359,-54.27349
2022-09-19 12:14:01+00:00,284.0,4.5,296.0,5.2,13.68,47.59359,-54.27349
2022-09-19 12:24:01+00:00,282.0,4.36,283.0,4.88,13.68,47.59359,-54.27349
2022-09-19 12:34:01+00:00,291.0,4.78,298.0,5.67,13.68,47.59359,-54.27349
2022-09-19 12:44:01+00:00,307.0,4.98,311.0,6.13,13.68,47.59359,-54.27349
2022-09-19 12:54:01+00:00,294.0,5.96,295.0,6.89,13.68,47.59359,-54.27349
2022-09-19 13:04:01+00:00,276.0,3.79,262.0,5.3,13.68,47.59359,-54.27349
2022-09-19 13:14:01+00:00,292.0,4.88,298.0,5.58,14.4,47.59359,-54.27349
2022-09-19 13:24:01+00:00,287.0,4.27,296.0,4.93,14.4,47.59359,-54.27349
2022-09-19 13:34:01+00:00,277.0,3.81,286.0,4.68,14.4,47.59359,-54.27349
2022-09-19 13:44:01+00:00,282.0,3.76,288.0,4.42,14.4,47.59359,-54.27349
2022-09-19 13:54:01+00:00,290.0,4.19,301.0,5.09,14.4,47.59359,-54.27349
2022-09-19 14:04:01+00:00,315.0,3.96,320.0,4.63,14.4,47.59359,-54.27349
2022-09-19 14:14:00+00:00,313.0,4.51,321.0,5.42,13.68,47.59359,-54.27349
2022-09-19 14:24:00+00:00,302.0,4.74,311.0,6.06,13.68,47.59359,-54.27349
2022-09-19 14:34:00+00:00,301.0,5.68,298.0,6.11,13.68,47.59359,-54.27349
2022-09-19 14:44:00+00:00,296.0,5.32,309.0,6.19,13.68,47.59359,-54.27349
2022-09-19 14:54:00+00:00,292.0,3.98,298.0,4.9,13.68,47.59359,-54.27349
2022-09-19 15:04:00+00:00,289.0,3.46,288.0,4.16,13.68,47.59359,-54.27349
2022-09-19 15:14:00+00:00,328.0,3.26,326.0,4.63,14.0,47.59359,-54.27349
2022-09-19 15:24:00+00:00,315.0,4.69,318.0,5.3,14.0,47.59359,-54.27349
2022-09-19 15:34:00+00:00,306.0,2.47,305.0,2.83,14.0,47.59359,-54.27349
2022-09-19 15:44:00+00:00,313.0,3.77,319.0,4.77,14.0,47.59359,-54.27349
2022-09-19 15:54:00+00:00,293.0,3.1,293.0,3.6,14.0,47.59359,-54.27349
2022-09-19 16:04:00+00:00,292.0,2.78,300.0,3.69,14.0,47.59359,-54.27349
2022-09-19 16:14:01+00:00,317.0,2.91,311.0,3.44,13.53,47.59359,-54.27349
2022-09-19 16:24:01+00:00,336.0,3.59,339.0,4.1,13.53,47.59359,-54.27349
2022-09-19 16:34:01+00:00,330.0,4.41,324.0,5.16,13.53,47.59359,-54.27349
2022-09-19 16:44:01+00:00,327.0,5.75,324.0,6.69,13.53,47.59359,-54.27349
2022-09-19 16:54:01+00:00,317.0,4.74,318.0,5.78,13.53,47.59359,-54.27349
2022-09-19 17:04:01+00:00,308.0,5.03,315.0,5.71,13.53,47.59359,-54.27349
2022-09-19 17:14:00+00:00,339.0,4.24,333.0,4.62,13.84,47.59359,-54.27349
2022-09-19 17:24:00+00:00,322.0,5.43,322.0,6.18,13.84,47.59359,-54.27349
2022-09-19 17:34:00+00:00,321.0,4.55,326.0,4.94,13.84,47.59359,-54.27349
2022-09-19 17:44:00+00:00,323.0,4.45,323.0,4.99,13.84,47.59359,-54.27349
2022-09-19 17:54:00+00:00,334.0,3.98,330.0,4.48,13.84,47.59359,-54.27349
2022-09-19 18:04:00+00:00,321.0,4.68,324.0,5.17,13.84,47.59359,-54.27349
2022-09-19 18:14:01+00:00,316.0,4.55,324.0,5.69,13.76,47.59359,-54.27349
2022-09-19 18:24:01+00:00,328.0,4.2,328.0,5.21,13.76,47.59359,-54.27349
2022-09-19 18:34:01+00:00,299.0,3.65,299.0,4.12,13.76,47.59359,-54.27349
2022-09-19 18:44:01+00:00,288.0,3.91,289.0,4.27,13.76,47.59359,-54.27349
2022-09-19 18:54:01+00:00,329.0,3.64,328.0,4.08,13.76,47.59359,-54.27349
2022-09-19 19:04:01+00:00,314.0,3.13,318.0,3.48,13.76,47.59359,-54.27349
2022-09-19 19:14:01+00:00,293.0,2.4,300.0,2.55,13.68,47.59359,-54.27349
2022-09-19 19:24:01+00:00,278.0,3.43,280.0,3.87,13.68,47.59359,-54.27349
2022-09-19 19:34:01+00:00,276.0,4.06,274.0,4.51,13.68,47.59359,-54.27349
2022-09-19 19:44:01+00:00,273.0,4.21,273.0,4.5,13.68,47.59359,-54.27349
2022-09-19 19:54:01+00:00,262.0,2.65,263.0,2.88,13.68,47.59359,-54.27349
2022-09-19 20:04:01+00:00,271.0,3.74,274.0,4.57,13.68,47.59359,-54.27349
2022-09-19 20:14:01+00:00,284.0,3.38,283.0,3.91,13.68,47.59359,-54.27349
2022-09-19 20:24:01+00:00,292.0,3.03,296.0,3.57,13.68,47.59359,-54.27349
2022-09-19 20:34:01+00:00,344.0,4.61,342.0,5.15,13.68,47.59359,-54.27349
2022-09-19 20:44:01+00:00,334.0,2.97,338.0,3.41,13.68,47.59359,-54.27349
2022-09-19 20:54:01+00:00,320.0,2.11,321.0,2.33,13.68,47.59359,-54.27349
2022-09-19 21:04:01+00:00,293.0,2.03,290.0,2.45,13.68,47.59359,-54.27349
2022-09-19 21:14:01+00:00,267.0,2.93,269.0,3.33,13.13,47.59359,-54.27349
2022-09-19 21:24:01+00:00,270.0,3.49,272.0,3.76,13.13,47.59359,-54.27349
2022-09-19 21:34:01+00:00,263.0,3.28,263.0,3.45,13.13,47.59359,-54.27349
2022-09-19 21:44:01+00:00,254.0,3.43,258.0,3.82,13.13,47.59359,-54.27349
2022-09-19 21:54:01+00:00,256.0,2.6,255.0,2.94,13.13,47.59359,-54.27349
2022-09-19 22:04:01+00:00,280.0,2.4,281.0,2.97,13.13,47.59359,-54.27349
2022-09-19 22:14:00+00:00,305.0,3.81,310.0,4.68,12.65,47.59359,-54.27349
2022-09-19 22:24:00+00:00,311.0,3.64,310.0,4.35,12.65,47.59359,-54.27349
2022-09-19 22:34:00+00:00,322.0,3.49,312.0,3.9,12.65,47.59359,-54.27349
2022-09-19 22:44:00+00:00,329.0,2.27,341.0,2.71,12.65,47.59359,-54.27349
2022-09-19 22:54:00+00:00,34.0,6.69,34.0,7.37,12.65,47.59359,-54.27349
2022-09-19 23:04:00+00:00,27.0,6.7,28.0,7.18,12.65,47.59359,-54.27349
2022-09-19 23:14:00+00:00,54.0,6.69,58.0,8.57,12.57,47.59359,-54.27349
2022-09-19 23:24:00+00:00,54.0,7.3,59.0,9.0,12.57,47.59359,-54.27349
2022-09-19 23:34:00+00:00,50.0,6.1,52.0,7.25,12.57,47.59359,-54.27349
2022-09-19 23:44:00+00:00,45.0,6.68,50.0,7.3,12.57,47.59359,-54.27349
2022-09-19 23:54:00+00:00,41.0,6.3,36.0,7.01,12.57,47.59359,-54.27349
